Flag for Switzerland Weather past 2 weeks in Richterswil, Zurich, Switzerland

Now
41 °F

Quite cool.


Feels Like: 37 °F
Forecast: 30 / 47 °F
Wind: 6 mph from West

Location: Zurich Town / Ville.

Current Time: Oct 23, 2014 at 5:54:46 AM

Latest Report: Oct 23, 2014 at 5:00 AM


Visibility: N/A

Pressure: 30.30 "Hg

Humidity: 94%

Dew point: 40 °F

Location of RichterswilLocation

Historic Weather in Richterswil — Graph

°F

Richterswil temperature yesterday

Maximum temperature yesterday: 47 °F (at 12:00 AM)
Minimum temperature yesterday: 39 °F (at 6:00 AM)
Average temperature yesterday: 41 °F

Past Weeks' High & Low Weather Summary

 TemperatureHumidityPressure
High72 °F (Oct 9, 5:00 PM)100% (Oct 18, 6:00 AM)30.30 "Hg (Oct 18, 6:00 AM)
Low39 °F (Oct 22, 6:00 AM)46% (Oct 9, 3:00 PM)29.74 "Hg (Oct 21, 7:00 PM)
Average57 °F85%29.97 "Hg
* Reported Oct 8 4:00 AM — Oct 23 4:00 AM, Richterswil, Weather by CustomWeather, © 2014

Note: Actual official high and low records may vary slightly from our data, if they occured in-between our weather recording intervals... More about our weather records

Advertising

Richterswil weather history for previous 24 hours

 ConditionsComfort  
Time TempWeatherWind HumidityBarometerVisibility
4:00 AM
Oct 23
41 °FQuite cool.6 mph95%30.30 "HgN/A
3:00 AM41 °FQuite cool.8 mph94%30.29 "HgN/A
2:00 AM41 °FQuite cool.8 mph95%30.28 "HgN/A
1:00 AM41 °FQuite cool.9 mph96%30.28 "HgN/A
12:00 AM41 °FQuite cool.8 mph91%30.27 "HgN/A
11:00 PM
Oct 22
41 °FQuite cool.9 mph90%30.27 "HgN/A
10:00 PM42 °FQuite cool.9 mph87%30.25 "HgN/A
9:00 PM42 °FQuite cool.10 mph83%30.23 "HgN/A
8:00 PM41 °FQuite cool.13 mph85%30.24 "HgN/A
7:00 PM41 °FQuite cool.12 mph81%30.23 "HgN/A
6:00 PM41 °FQuite cool.10 mph82%30.23 "HgN/A
5:00 PM42 °FQuite cool.9 mph78%30.21 "HgN/A
4:00 PM43 °FQuite cool.13 mph69%30.22 "HgN/A
3:00 PM42 °FQuite cool.15 mph71%30.22 "HgN/A
2:00 PM43 °FOvercast.15 mph71%30.22 "HgN/A
1:00 PM42 °FQuite cool.15 mph76%30.22 "HgN/A
12:00 PM41 °FQuite cool.12 mph81%30.22 "HgN/A
11:00 AM41 °FQuite cool.9 mph82%30.21 "HgN/A
10:40 AM41 °FQuite cool.9 mph84%30.21 "HgN/A
10:00 AM40 °FQuite cool.7 mph86%30.21 "HgN/A
9:00 AM40 °FChilly.12 mph86%30.19 "HgN/A
8:00 AM39 °FOvercast.10 mph91%30.16 "HgN/A
7:00 AM39 °FChilly.9 mph89%30.13 "HgN/A
6:00 AM39 °FChilly.9 mph86%30.11 "HgN/A
5:00 AM40 °FChilly.15 mph90%30.10 "HgN/A
Weather by CustomWeather, © 2014

See weather overviewHow to use our weather pages